Location: ActonStarParty
(42.4766°N, 71.4538°W)
Time: 12:24:21
(UTC-05:00)

ISS - All Passes

Search period start: 07 February 2016 00:00
Search period end: 17 February 2016 00:00
Orbit: 399 x 408 km, 51.6° (Epoch: 07 February)

Date Brightness Start Highest point End Pass type
(mag) Time Alt. Az. Time Alt. Az. Time Alt. Az.
07 Feb - 16:29:06 10° SW 16:32:18 59° SE 16:35:30 10° ENE daylight
07 Feb - 18:06:09 10° W 18:08:57 26° NNW 18:11:45 10° NE visible
07 Feb - 19:44:04 10° NW 19:46:12 16° N 19:48:20 10° NE visible
07 Feb - 21:20:36 10° NW 21:23:27 27° NNE 21:26:17 10° E night (unlit)
07 Feb - 22:56:53 10° WNW 23:00:03 53° SW 23:03:14 10° SE night (unlit)
08 Feb - 15:36:56 10° SSW 15:39:50 30° SE 15:42:44 10° ENE daylight
08 Feb - 17:13:11 10° W 17:16:14 37° NNW 17:19:18 10° NE daylight
08 Feb - 18:51:09 10° NW 18:53:22 17° N 18:55:34 10° NE visible
08 Feb - 20:28:08 10° NW 20:30:41 21° NNE 20:33:14 10° ENE visible
08 Feb - 22:04:16 10° NW 22:07:31 81° NNE 22:10:46 10° ESE night (unlit)
08 Feb - 23:42:08 10° WSW 23:43:33 12° SW 23:44:56 10° SSW night (unlit)
09 Feb - 14:45:17 10° S 14:47:26 16° SE 14:49:35 10° E daylight
09 Feb - 16:20:22 10° WSW 16:23:35 61° NNW 16:26:48 10° NE daylight
09 Feb - 17:58:06 10° WNW 18:00:31 19° NNW 18:02:57 10° NE visible
09 Feb - 19:35:33 10° NW 19:37:51 18° N 19:40:09 10° NE visible
09 Feb - 21:11:45 10° NW 21:14:53 46° NNE 21:18:02 10° ESE night (unlit)
09 Feb - 22:48:33 10° W 22:51:11 23° SW 22:53:48 10° S night (unlit)
10 Feb - 15:27:45 10° SW 15:30:59 73° SE 15:34:13 10° ENE daylight
10 Feb - 17:05:01 10° WNW 17:07:42 24° NNW 17:10:25 10° NE daylight
10 Feb - 18:42:51 10° NW 18:45:00 16° N 18:47:08 10° NE visible
10 Feb - 20:19:16 10° NW 20:22:11 30° NNE 20:25:06 10° E visible
10 Feb - 21:55:37 10° WNW 21:58:44 43° SW 22:01:49 10° SSE night (unlit)
11 Feb - 14:35:25 10° SSW 14:38:27 37° SE 14:41:30 10° ENE daylight
11 Feb - 16:11:57 10° W 16:14:56 32° NNW 16:17:55 10° NE daylight
11 Feb - 17:49:56 10° NW 17:52:06 16° N 17:54:16 10° NE visible
11 Feb - 19:26:46 10° NW 19:29:25 22° NNE 19:32:03 10° ENE visible
11 Feb - 21:02:55 10° WNW 21:06:10 84° SW 21:09:25 10° SE night (unlit)
12 Feb - 13:43:32 10° S 13:46:00 20° SE 13:48:27 10° E daylight
12 Feb - 15:19:02 10° WSW 15:22:13 51° NNW 15:25:24 10° NE daylight
12 Feb - 16:56:52 10° NW 16:59:13 18° N 17:01:33 10° NE daylight
12 Feb - 18:34:11 10° NW 18:36:33 18° N 18:38:55 10° ENE visible
12 Feb - 20:10:20 10° NW 20:13:32 54° NNE 20:16:43 10° ESE visible
12 Feb - 21:47:22 10° W 21:49:44 19° SW 21:52:05 10° S night (unlit)
13 Feb - 12:52:50 10° SE 12:53:36 11° SE 12:54:22 10° ESE daylight
13 Feb - 14:26:18 10° SW 14:29:34 89° ESE 14:32:49 10° ENE daylight
13 Feb - 16:03:44 10° WNW 16:06:22 22° NNW 16:08:58 10° NE daylight
13 Feb - 17:41:29 10° NW 17:43:39 16° N 17:45:50 10° NE visible
13 Feb - 19:17:48 10° NW 19:20:49 34° NNE 19:23:48 10° E visible
13 Feb - 20:54:16 10° WNW 20:57:15 35° SW 21:00:15 10° SSE night (unlit)
14 Feb - 13:33:50 10° SW 13:36:58 46° SE 13:40:06 10° ENE daylight
14 Feb - 15:10:38 10° W 15:13:31 29° NNW 15:16:26 10° NE daylight
14 Feb - 16:48:35 10° NW 16:50:44 16° N 16:52:52 10° NE daylight
14 Feb - 18:25:16 10° NW 18:28:00 24° NNE 18:30:44 10° ENE visible
14 Feb - 20:01:28 10° WNW 20:04:42 69° SW 20:07:55 10° SE visible
15 Feb - 12:41:45 10° SSW 12:44:27 24° SE 12:47:09 10° E daylight
15 Feb - 14:17:37 10° WSW 14:20:45 44° NNW 14:23:53 10° NE daylight
15 Feb - 15:55:31 10° NW 15:57:48 17° N 16:00:05 10° NE daylight
15 Feb - 17:32:41 10° NW 17:35:08 19° NNE 17:37:34 10° ENE daylight
15 Feb - 19:08:49 10° NW 19:12:03 64° NNE 19:15:16 10° ESE visible
15 Feb - 20:46:08 10° W 20:48:10 15° SW 20:50:10 10° S visible
16 Feb - 11:50:23 10° SSE 11:51:59 13° SE 11:53:36 10° E daylight
16 Feb - 13:24:46 10° WSW 13:28:02 76° NNW 13:31:17 10° NE daylight
16 Feb - 15:02:21 10° WNW 15:04:53 20° NNW 15:07:25 10° NE daylight
16 Feb - 16:39:58 10° NW 16:42:12 17° N 16:44:25 10° NE daylight
16 Feb - 18:16:13 10° NW 18:19:19 38° NNE 18:22:22 10° E visible
16 Feb - 19:52:49 10° WNW 19:55:41 29° SW 19:58:31 10° SSE visible
